Torna al catalogo

FENGYUN 1C DEB

AttivoLEO
NORAD 32315·DEBRIS·🇨🇳 China

Lanciato May 10, 1999 da Taiyuan Satellite Launch Center

Loading…

Prossimi Passaggi (prossime 24 ore)

TLE

ObsoletoSource: Space-Track

Epoca: Aug 26, 2026, 07:36 UTC

1 32315U 99025CXG 26238.31679022  .00000108  00000-0  16493-3 0  9995
2 32315 100.8375  56.4273 0228093 205.1776 153.8103 13.66243562645924

Traccia FENGYUN 1C DEB in tempo reale con AllMySat

Download on the App Store